Flag for Japan Weather past 2 weeks in Nagoya, Japan

Now
77 °F

Scattered showers. Passing clouds.


Feels Like: 78 °F
Forecast: 71 / 81 °F
Wind: 12 mph from Southeast

Location: Nagoya Airport

Current Time: Aug 28, 2015 at 10:50:38 PM

Latest Report: Aug 28, 2015 at 10:00 PM


Visibility: N/A

Pressure: 29.83 "Hg

Humidity: 83%

Dew point: 72 °F

Location of NagoyaLocation

Historic Weather in Nagoya — Graph

°F

Nagoya temperature yesterday

Maximum temperature yesterday: 86 °F (at 3:30 PM)
Minimum temperature yesterday: 73 °F (at 5:30 AM)
Average temperature yesterday: 79 °F

Past Weeks' High & Low Weather Summary

 TemperatureHumidityPressure
High90 °F (Aug 15, 2:30 PM)94% (Aug 14, 5:00 AM)29.95 "Hg (Aug 14, 5:00 AM)
Low70 °F (Aug 25, 8:30 PM)43% (Aug 15, 2:30 PM)29.47 "Hg (Aug 25, 9:00 PM)
Average80 °F77%29.71 "Hg
* Reported Aug 13 9:00 PM — Aug 28 9:30 PM, Nagoya, Weather by CustomWeather, © 2015

Note: Actual official high and low records may vary slightly from our data, if they occured in-between our weather recording intervals... More about our weather records

Advertising

Nagoya weather history for previous 24 hours

 ConditionsComfort  
Time TempWeatherWind HumidityBarometerVisibility
9:30 PM
Fri, Aug 28
77 °FScattered showers. Passing clouds.12 mph83%29.83 "HgN/A
9:00 PM77 °FScattered showers. Partly cloudy.12 mph83%29.83 "HgN/A
8:30 PM77 °FSprinkles. Partly cloudy.13 mph83%29.83 "HgN/A
8:00 PM77 °FSprinkles. Partly cloudy.9 mph83%29.83 "HgN/A
7:30 PM77 °FPartly cloudy.10 mph83%29.83 "HgN/A
7:00 PM77 °FPartly cloudy.12 mph83%29.83 "HgN/A
6:30 PM79 °FScattered showers. Partly cloudy.13 mph79%29.83 "HgN/A
6:00 PM79 °FScattered showers. Broken clouds.13 mph79%29.80 "HgN/A
5:30 PM79 °FScattered showers. Broken clouds.12 mph79%29.80 "HgN/A
5:00 PM79 °FBroken clouds.13 mph84%29.80 "HgN/A
4:30 PM79 °FSprinkles. Broken clouds.10 mph84%29.80 "HgN/A
4:00 PM79 °FScattered showers. Broken clouds.10 mph84%29.80 "HgN/A
3:30 PM79 °FPartly sunny.10 mph84%29.80 "HgN/A
3:00 PM79 °FPartly sunny.13 mph84%29.80 "HgN/A
2:30 PM79 °FSprinkles. Partly sunny.13 mph79%29.80 "HgN/A
2:00 PM79 °FBroken clouds.13 mph84%29.80 "HgN/A
1:30 PM79 °FPartly sunny.5 mph89%29.80 "HgN/A
1:00 PM79 °FScattered showers. Partly sunny.5 mph89%29.83 "HgN/A
12:30 PM77 °FSprinkles. Broken clouds.5 mph89%29.83 "Hg6 mi
12:00 PM77 °FSprinkles. Partly sunny.7 mph89%29.83 "HgN/A
11:30 AM77 °FSprinkles. Broken clouds.6 mph89%29.83 "Hg5 mi
11:00 AM77 °FSprinkles. Broken clouds.7 mph89%29.83 "Hg4 mi
10:30 AM75 °FSprinkles. Broken clouds.10 mph89%29.83 "Hg5 mi
10:00 AM77 °FSprinkles. Broken clouds.12 mph89%29.83 "Hg4 mi
9:30 AM77 °FSprinkles. Broken clouds.12 mph89%29.83 "Hg4 mi
9:00 AM75 °FSprinkles. Fog.12 mph89%29.83 "Hg2 mi
8:30 AM75 °FLots of rain. Fog.10 mph94%29.83 "Hg2 mi
8:00 AM77 °FSprinkles. Partly sunny.12 mph89%29.83 "Hg4 mi
7:30 AM77 °FSprinkles. Partly sunny.9 mph89%29.83 "Hg4 mi
7:00 AM79 °FSprinkles. Broken clouds.3 mph79%29.83 "Hg5 mi
6:30 AM79 °FScattered showers. Scattered clouds.5 mph79%29.80 "Hg5 mi
6:00 AM77 °FScattered clouds.1 mph89%29.80 "Hg5 mi
5:30 AM77 °FScattered clouds.3 mph89%29.80 "HgN/A
5:00 AM79 °FPassing clouds.6 mph84%29.80 "HgN/A
4:30 AM79 °FPassing clouds.3 mph84%29.80 "HgN/A
4:00 AM77 °FPassing clouds.3 mph83%29.80 "HgN/A
3:30 AM79 °FPassing clouds.5 mph84%29.80 "HgN/A
3:00 AM77 °FPassing clouds.6 mph89%29.80 "HgN/A
2:30 AM77 °FPassing clouds.7 mph89%29.77 "HgN/A
2:00 AM79 °FPassing clouds.7 mph84%29.80 "HgN/A
1:30 AM79 °FPassing clouds.6 mph84%29.77 "HgN/A
1:00 AM79 °FPassing clouds.7 mph84%29.77 "HgN/A
12:30 AM79 °FPassing clouds.8 mph84%29.80 "HgN/A
12:00 AM79 °FPartly cloudy.8 mph84%29.80 "HgN/A
11:30 PM
Thu, Aug 27
79 °FPassing clouds.8 mph84%29.80 "HgN/A
11:00 PM79 °FPassing clouds.7 mph89%29.80 "HgN/A
10:30 PM79 °FPassing clouds.8 mph84%29.80 "HgN/A
10:00 PM79 °FPassing clouds.8 mph84%29.80 "HgN/A
Weather by CustomWeather, © 2015

See weather overviewHow to use our weather pages